Location: Mentone
(34.5413°N, 85.5351°W)
Time: 15:44:22
(UTC-06:00)

Tiros 1 despin weight - All Passes

Search period start: 06 December 2016 00:00
Search period end: 16 December 2016 00:00
Orbit: 595 x 645 km, 48.2° (Epoch: 05 December)

Date Brightness Start Highest point End Pass type
(mag) Time Alt. Az. Time Alt. Az. Time Alt. Az.
06 Dec - 01:39:43 10° NNW 01:43:26 23° NNE 01:47:11 10° ENE night (unlit)
06 Dec - 03:20:51 10° NW 03:25:34 85° NE 03:30:16 10° SE visible
06 Dec - 05:04:03 10° W 05:06:41 15° SW 05:09:18 10° SSW visible
06 Dec - 19:07:35 10° S 19:11:20 27° SE 19:15:08 10° ENE visible
06 Dec - 20:48:21 10° WSW 20:52:44 49° NNW 20:57:11 10° NE night (unlit)
06 Dec - 22:32:05 10° NW 22:35:10 18° NNW 22:38:18 10° NNE night (unlit)
07 Dec - 00:15:24 10° NNW 00:18:13 16° N 00:21:03 10° NE night (unlit)
07 Dec - 01:56:38 10° NW 02:00:54 34° NNE 02:05:12 10° E night (unlit)
07 Dec - 03:38:07 10° WNW 03:42:37 47° SW 03:47:08 10° SSE visible
07 Dec - 19:23:54 10° SW 19:28:16 58° SE 19:32:44 10° ENE visible
07 Dec - 21:06:08 10° W 21:10:05 29° NNW 21:14:07 10° NE night (unlit)
07 Dec - 22:50:13 10° NW 22:52:52 15° N 22:55:32 10° NNE night (unlit)
08 Dec - 00:32:31 10° NNW 00:35:53 19° NNE 00:39:16 10° ENE night (unlit)
08 Dec - 02:13:35 10° NW 02:18:12 60° NE 02:22:51 10° ESE night (unlit)
08 Dec - 03:55:54 10° W 03:59:32 22° SW 04:03:11 10° S visible
08 Dec - 18:01:14 10° S 18:04:12 17° SE 18:07:11 10° E visible
08 Dec - 19:40:54 10° WSW 19:45:22 70° NW 19:49:55 10° NE visible
08 Dec - 21:24:13 10° WNW 21:27:36 20° NNW 21:31:02 10° NNE night (unlit)
08 Dec - 23:07:59 10° NNW 23:10:35 15° N 23:13:12 10° NE night (unlit)
09 Dec - 00:49:27 10° NW 00:53:25 27° NNE 00:57:24 10° E night (unlit)
09 Dec - 02:30:42 10° WNW 02:35:21 71° SW 02:40:01 10° SE night (unlit)
09 Dec - 18:16:57 10° SSW 18:21:04 37° SE 18:25:14 10° ENE visible
09 Dec - 19:58:27 10° W 20:02:38 38° NNW 20:06:53 10° NE visible
09 Dec - 21:42:25 10° NW 21:45:14 16° N 21:48:05 10° NNE night (unlit)
09 Dec - 23:25:17 10° NNW 23:28:17 17° NNE 23:31:19 10° NE night (unlit)
10 Dec - 01:06:22 10° NW 01:10:48 43° NNE 01:15:17 10° ESE night (unlit)
10 Dec - 02:48:08 10° WNW 02:52:20 33° SW 02:56:33 10° SSE night (unlit)
10 Dec - 16:55:55 10° SE 16:57:06 11° SE 16:58:16 10° ESE visible
10 Dec - 18:33:37 10° SW 18:38:04 81° SE 18:42:35 10° NE visible
10 Dec - 20:16:23 10° WNW 20:20:04 24° NNW 20:23:48 10° NNE visible
10 Dec - 22:00:26 10° NW 22:02:57 14° N 22:05:30 10° NNE night (unlit)
10 Dec - 23:42:17 10° NNW 23:45:53 22° NNE 23:49:31 10° ENE night (unlit)
11 Dec - 01:23:22 10° NW 01:28:02 80° NE 01:32:43 10° SE night (unlit)
11 Dec - 03:06:23 10° W 03:09:12 16° SW 03:12:01 10° SSW night (unlit)
11 Dec - 17:10:17 10° S 17:13:53 25° SE 17:17:32 10° ENE visible
11 Dec - 18:50:54 10° WSW 18:55:14 51° NNW 18:59:40 10° NE visible
11 Dec - 20:34:34 10° WNW 20:37:39 18° NNW 20:40:45 10° NNE night (unlit)
11 Dec - 22:17:58 10° NNW 22:20:40 15° N 22:23:23 10° NE night (unlit)
11 Dec - 23:59:11 10° NW 00:03:22 33° NNE 00:07:34 10° E night (unlit)
12 Dec - 01:40:36 10° WNW 01:45:06 50° SW 01:49:38 10° SSE night (unlit)
12 Dec - 17:26:30 10° SW 17:30:48 54° SE 17:35:12 10° ENE visible
12 Dec - 19:08:38 10° W 19:12:34 30° NNW 19:16:35 10° NE visible
12 Dec - 20:52:43 10° NW 20:55:19 15° N 20:57:55 10° NNE night (unlit)
12 Dec - 22:35:05 10° NNW 22:38:20 19° NNE 22:41:35 10° ENE night (unlit)
13 Dec - 00:16:07 10° NW 00:20:40 56° NNE 00:25:16 10° ESE night (unlit)
13 Dec - 01:58:19 10° W 02:02:02 24° SW 02:05:46 10° S night (unlit)
13 Dec - 16:04:01 10° SSE 16:06:44 16° SE 16:09:29 10° E daylight
13 Dec - 17:43:27 10° WSW 17:47:53 74° NW 17:52:23 10° NE visible
13 Dec - 19:26:42 10° WNW 19:30:04 20° NNW 19:33:29 10° NNE visible
13 Dec - 21:10:31 10° NNW 21:13:02 14° N 21:15:33 10° NE night (unlit)
13 Dec - 22:52:00 10° NW 22:55:52 26° NNE 22:59:45 10° E night (unlit)
14 Dec - 00:33:12 10° NW 00:37:49 75° SW 00:42:29 10° SE night (unlit)
14 Dec - 02:17:47 10° WSW 02:18:49 11° SW 02:19:52 10° SW night (unlit)
14 Dec - 16:19:35 10° SSW 16:23:35 35° SE 16:27:39 10° ENE daylight
14 Dec - 18:00:58 10° W 18:05:08 39° NNW 18:09:22 10° NE visible
14 Dec - 19:44:54 10° NW 19:47:41 16° N 19:50:29 10° NNE visible
14 Dec - 21:27:50 10° NNW 21:30:43 16° N 21:33:37 10° NE night (unlit)
14 Dec - 23:08:55 10° NW 23:13:15 41° NNE 23:17:39 10° E night (unlit)
15 Dec - 00:50:36 10° WNW 00:54:49 35° SW 00:59:04 10° SSE night (unlit)
15 Dec - 16:36:11 10° SW 16:40:35 76° SE 16:45:03 10° NE daylight
15 Dec - 18:18:52 10° WNW 18:22:32 25° NNW 18:26:15 10° NNE visible
15 Dec - 20:02:57 10° NW 20:05:23 14° N 20:07:51 10° NNE visible
15 Dec - 21:44:50 10° NNW 21:48:20 21° NNE 21:51:51 10° ENE night (unlit)
15 Dec - 23:25:53 10° NW 23:30:30 76° NE 23:35:09 10° ESE night (unlit)
